owner,sensor,date,latitude,longitude,vertical_datum,direction_of_sea_water_velocity,sea_water_speed,upward_sea_water_velocity,qcFlag 
TABS,ioos:station:wmo:42051:1,2009-07-01T00:00:00Z,29.6350,-93.6417,2.0,34.63794754,8.21623393,-99999.0,'11133222,11111222,99999999' 
TABS,ioos:station:wmo:42051:1,2009-07-01T00:30:00Z,29.6350,-93.6417,2.0,31.80990711,16.1449218,-99999.0,'11111222,11111222,99999999' 
TABS,ioos:station:wmo:42051:1,2009-07-01T01:00:00Z,29.6350,-93.6417,2.0,53.95910791,15.48362038,-99999.0,'11111222,11111222,99999999' 
TABS,ioos:station:wmo:42051:1,2009-07-01T01:30:00Z,29.6350,-93.6417,2.0,51.49268634,10.56831585,-99999.0,'11111222,11111222,99999999' 
TABS,ioos:station:wmo:42051:1,2009-07-01T02:00:00Z,29.6350,-93.6417,2.0,38.63990187,8.936263201,-99999.0,'11133222,11111222,99999999' 
TABS,ioos:station:wmo:42051:1,2009-07-01T02:30:00Z,29.6350,-93.6417,2.0,57.26485028,8.321658489,-99999.0,'11133222,11111222,99999999' 
TABS,ioos:station:wmo:42051:1,2009-07-01T03:00:00Z,29.6350,-93.6417,2.0,36.13076426,7.750645134,-99999.0,'11133222,11111222,99999999' 
TABS,ioos:station:wmo:42051:1,2009-07-01T03:30:00Z,29.6350,-93.6417,2.0,9.291945986,6.626952542,-99999.0,'11133222,11111222,99999999' 
TABS,ioos:station:wmo:42051:1,2009-07-01T04:00:00Z,29.6350,-93.6417,2.0,15.17917482,4.621222782,-99999.0,'11133222,11111222,99999999' 
TABS,ioos:station:wmo:42051:1,2009-07-01T04:30:00Z,29.6350,-93.6417,2.0,25.3534864,3.806638937,-99999.0,'11133222,11111222,99999999' 
TABS,ioos:station:wmo:42051:1,2009-07-01T05:00:00Z,29.6350,-93.6417,2.0,27.60878618,7.120821582,-99999.0,'11133222,11111222,99999999' 
TABS,ioos:station:wmo:42051:1,2009-07-01T05:30:00Z,29.6350,-93.6417,2.0,35.71225851,2.672545603,-99999.0,'11133222,11111222,99999999' 
TABS,ioos:station:wmo:42051:1,2009-07-01T06:00:00Z,29.6350,-93.6417,2.0,68.31098575,1.89409609,-99999.0,'11133222,11111222,99999999' 
TABS,ioos:station:wmo:42051:1,2009-07-01T06:30:00Z,29.6350,-93.6417,2.0,31.44446189,3.680489098,-99999.0,'11133222,11111222,99999999' 
TABS,ioos:station:wmo:42051:1,2009-07-01T07:00:00Z,29.6350,-93.6417,2.0,34.5545076,3.861152678,-99999.0,'11133222,11111222,99999999' 
TABS,ioos:station:wmo:42051:1,2009-07-01T07:30:00Z,29.6350,-93.6417,2.0,82.76701188,4.606658225,-99999.0,'11133222,11111222,99999999' 
TABS,ioos:station:wmo:42051:1,2009-07-01T08:00:00Z,29.6350,-93.6417,2.0,76.24696157,2.944418449,-99999.0,'11133222,11111222,99999999' 
TABS,ioos:station:wmo:42051:1,2009-07-01T08:30:00Z,29.6350,-93.6417,2.0,80.4727389,2.9,-99999.0,'11133222,11111222,99999999' 
TABS,ioos:station:wmo:42051:1,2009-07-01T09:00:00Z,29.6350,-93.6417,2.0,64.42704419,5.166091366,-99999.0,'11133222,11111222,99999999' 
TABS,ioos:station:wmo:42051:1,2009-07-01T09:30:00Z,29.6350,-93.6417,2.0,64.62849758,6.441273166,-99999.0,'11133222,11111222,99999999' 
TABS,ioos:station:wmo:42051:1,2009-07-01T10:00:00Z,29.6350,-93.6417,2.0,64.21053915,7.929823453,-99999.0,'11133222,11111222,99999999' 
TABS,ioos:station:wmo:42051:1,2009-07-01T10:30:00Z,29.6350,-93.6417,2.0,66.84144673,5.644864923,-99999.0,'11133222,11111222,99999999' 
TABS,ioos:station:wmo:42051:1,2009-07-01T11:00:00Z,29.6350,-93.6417,2.0,84.9167792,6.99752099,-99999.0,'11133222,11111222,99999999' 
TABS,ioos:station:wmo:42051:1,2009-07-01T11:30:00Z,29.6350,-93.6417,2.0,72.51717417,8.754393183,-99999.0,'11133222,11111222,99999999' 
TABS,ioos:station:wmo:42051:1,2009-07-01T12:00:00Z,29.6350,-93.6417,2.0,73.58707186,6.901224529,-99999.0,'11133222,11111222,99999999' 
TABS,ioos:station:wmo:42051:1,2009-07-01T12:30:00Z,29.6350,-93.6417,2.0,74.30263592,9.203243993,-99999.0,'11133222,11111222,99999999' 
TABS,ioos:station:wmo:42051:1,2009-07-01T13:00:00Z,29.6350,-93.6417,2.0,81.64988103,8.469787483,-99999.0,'11133222,11111222,99999999' 
TABS,ioos:station:wmo:42051:1,2009-07-01T13:30:00Z,29.6350,-93.6417,2.0,66.76604796,10.62137938,-99999.0,'11111222,11111222,99999999' 
TABS,ioos:station:wmo:42051:1,2009-07-01T14:00:00Z,29.6350,-93.6417,2.0,68.33973453,9.048961266,-99999.0,'11133222,11111222,99999999' 
TABS,ioos:station:wmo:42051:1,2009-07-01T14:30:00Z,29.6350,-93.6417,2.0,59.79912779,9.661371538,-99999.0,'11133222,11111222,99999999' 
TABS,ioos:station:wmo:42051:1,2009-07-01T15:00:00Z,29.6350,-93.6417,2.0,83.2943816,7.964483662,-99999.0,'11133222,11111222,99999999' 
TABS,ioos:station:wmo:42051:1,2009-07-01T15:30:00Z,29.6350,-93.6417,2.0,80.02999132,6.122458656,-99999.0,'11133222,11111222,99999999' 
TABS,ioos:station:wmo:42051:1,2009-07-01T16:00:00Z,29.6350,-93.6417,2.0,64.61467734,3.475586281,-99999.0,'11133222,11111222,99999999' 
TABS,ioos:station:wmo:42051:1,2009-07-01T16:30:00Z,29.6350,-93.6417,2.0,29.49372712,3.676424894,-99999.0,'11133222,11111222,99999999' 
TABS,ioos:station:wmo:42051:1,2009-07-01T17:00:00Z,29.6350,-93.6417,2.0,51.09787894,4.060554149,-99999.0,'11133222,11111222,99999999' 
TABS,ioos:station:wmo:42051:1,2009-07-01T17:30:00Z,29.6350,-93.6417,2.0,82.34041903,7.577611761,-99999.0,'11133222,11111222,99999999' 
TABS,ioos:station:wmo:42051:1,2009-07-01T18:00:00Z,29.6350,-93.6417,2.0,96.63645499,10.0372556,-99999.0,'11111222,11111222,99999999' 
TABS,ioos:station:wmo:42051:1,2009-07-01T18:30:00Z,29.6350,-93.6417,2.0,99.51675325,8.649034628,-99999.0,'11133222,11111222,99999999' 
TABS,ioos:station:wmo:42051:1,2009-07-01T19:00:00Z,29.6350,-93.6417,2.0,131.7640098,8.017231442,-99999.0,'11133222,11111222,99999999' 
TABS,ioos:station:wmo:42051:1,2009-07-01T19:30:00Z,29.6350,-93.6417,2.0,123.6899887,6.706325372,-99999.0,'11133222,11111222,99999999' 
TABS,ioos:station:wmo:42051:1,2009-07-01T20:00:00Z,29.6350,-93.6417,2.0,140.7192153,4.612081959,-99999.0,'11133222,11111222,99999999' 
TABS,ioos:station:wmo:42051:1,2009-07-01T20:30:00Z,29.6350,-93.6417,2.0,145.5546723,6.523840893,-99999.0,'11133222,11111222,99999999' 
TABS,ioos:station:wmo:42051:1,2009-07-01T21:00:00Z,29.6350,-93.6417,2.0,107.2326845,6.480933575,-99999.0,'11133222,11111222,99999999' 
TABS,ioos:station:wmo:42051:1,2009-07-01T21:30:00Z,29.6350,-93.6417,2.0,110.8610365,7.694394063,-99999.0,'11133222,11111222,99999999' 
TABS,ioos:station:wmo:42051:1,2009-07-01T22:00:00Z,29.6350,-93.6417,2.0,88.33731317,6.892902146,-99999.0,'11133222,11111222,99999999' 
TABS,ioos:station:wmo:42051:1,2009-07-01T22:30:00Z,29.6350,-93.6417,2.0,81.06857095,9.404025734,-99999.0,'11133222,11111222,99999999' 
TABS,ioos:station:wmo:42051:1,2009-07-01T23:00:00Z,29.6350,-93.6417,2.0,69.81153528,11.67743551,-99999.0,'11111222,11111222,99999999' 
TABS,ioos:station:wmo:42051:1,2009-07-01T23:30:00Z,29.6350,-93.6417,2.0,52.82407989,10.85615494,-99999.0,'11111222,11111222,99999999' 
TABS,ioos:station:wmo:42051:1,2009-07-02T00:00:00Z,29.6350,-93.6417,2.0,39.70736633,11.19172015,-99999.0,'11111222,11111222,99999999' 
TABS,ioos:station:wmo:42051:1,2009-07-02T00:30:00Z,29.6350,-93.6417,2.0,29.68104049,11.10731741,-99999.0,'11111222,11111222,99999999' 
TABS,ioos:station:wmo:42051:1,2009-07-02T01:00:00Z,29.6350,-93.6417,2.0,33.2467635,12.18435472,-99999.0,'11111222,11111222,99999999' 
TABS,ioos:station:wmo:42051:1,2009-07-02T01:30:00Z,29.6350,-93.6417,2.0,29.42214798,14.08684848,-99999.0,'11111222,11111222,99999999' 
TABS,ioos:station:wmo:42051:1,2009-07-02T02:00:00Z,29.6350,-93.6417,2.0,22.80628291,15.14392618,-99999.0,'11111222,11111222,99999999' 
TABS,ioos:station:wmo:42051:1,2009-07-02T02:30:00Z,29.6350,-93.6417,2.0,21.21384033,16.1117752,-99999.0,'11111222,11111222,99999999' 
TABS,ioos:station:wmo:42051:1,2009-07-02T03:00:00Z,29.6350,-93.6417,2.0,20.92094108,12.68634699,-99999.0,'11111222,11111222,99999999' 
TABS,ioos:station:wmo:42051:1,2009-07-02T03:30:00Z,29.6350,-93.6417,2.0,22.08661957,10.82431522,-99999.0,'11111222,11111222,99999999' 
TABS,ioos:station:wmo:42051:1,2009-07-02T04:00:00Z,29.6350,-93.6417,2.0,7.209439243,14.34339221,-99999.0,'11111222,11111222,99999999' 
TABS,ioos:station:wmo:42051:1,2009-07-02T04:30:00Z,29.6350,-93.6417,2.0,6.90566494,11.9768819,-99999.0,'11111222,11111222,99999999' 
TABS,ioos:station:wmo:42051:1,2009-07-02T05:00:00Z,29.6350,-93.6417,2.0,5.662914218,9.526489385,-99999.0,'11133222,11111222,99999999' 
TABS,ioos:station:wmo:42051:1,2009-07-02T05:30:00Z,29.6350,-93.6417,2.0,16.12841844,9.899626256,-99999.0,'11133222,11111222,99999999' 
TABS,ioos:station:wmo:42051:1,2009-07-02T06:00:00Z,29.6350,-93.6417,2.0,20.36430169,8.736000229,-99999.0,'11133222,11111222,99999999' 
TABS,ioos:station:wmo:42051:1,2009-07-02T06:30:00Z,29.6350,-93.6417,2.0,24.58172746,6.20209642,-99999.0,'11133222,11111222,99999999' 
TABS,ioos:station:wmo:42051:1,2009-07-02T07:00:00Z,29.6350,-93.6417,2.0,331.497841,4.233060359,-99999.0,'11133222,11111222,99999999' 
TABS,ioos:station:wmo:42051:1,2009-07-02T07:30:00Z,29.6350,-93.6417,2.0,18.1696849,4.778252819,-99999.0,'11133222,11111222,99999999' 
TABS,ioos:station:wmo:42051:1,2009-07-02T08:00:00Z,29.6350,-93.6417,2.0,23.73808155,5.440266538,-99999.0,'11133222,11111222,99999999' 
TABS,ioos:station:wmo:42051:1,2009-07-02T08:30:00Z,29.6350,-93.6417,2.0,24.57177828,3.342708483,-99999.0,'11133222,11111222,99999999' 
TABS,ioos:station:wmo:42051:1,2009-07-02T09:00:00Z,29.6350,-93.6417,2.0,47.71030199,2.392697223,-99999.0,'11133222,11111222,99999999' 
TABS,ioos:station:wmo:42051:1,2009-07-02T09:30:00Z,29.6350,-93.6417,2.0,114.9975889,1.798471573,-99999.0,'11133222,11111222,99999999' 
TABS,ioos:station:wmo:42051:1,2009-07-02T10:00:00Z,29.6350,-93.6417,2.0,41.31739634,4.513590588,-99999.0,'11133222,11111222,99999999' 
TABS,ioos:station:wmo:42051:1,2009-07-02T10:30:00Z,29.6350,-93.6417,2.0,50.56729256,3.935936991,-99999.0,'11133222,11111222,99999999' 
TABS,ioos:station:wmo:42051:1,2009-07-02T11:00:00Z,29.6350,-93.6417,2.0,75.13836892,3.703903346,-99999.0,'11133222,11111222,99999999' 
TABS,ioos:station:wmo:42051:1,2009-07-02T11:30:00Z,29.6350,-93.6417,2.0,66.8594357,3.893237727,-99999.0,'11133222,11111222,99999999' 
TABS,ioos:station:wmo:42051:1,2009-07-02T12:00:00Z,29.6350,-93.6417,2.0,73.94761353,4.412029012,-99999.0,'11133222,11111222,99999999' 
TABS,ioos:station:wmo:42051:1,2009-07-02T12:30:00Z,29.6350,-93.6417,2.0,89.05233891,6.650909712,-99999.0,'11133222,11111222,99999999' 
TABS,ioos:station:wmo:42051:1,2009-07-02T13:00:00Z,29.6350,-93.6417,2.0,112.497479,5.043857651,-99999.0,'11133222,11111222,99999999' 
TABS,ioos:station:wmo:42051:1,2009-07-02T13:30:00Z,29.6350,-93.6417,2.0,121.5083524,7.57714986,-99999.0,'11133222,11111222,99999999' 
TABS,ioos:station:wmo:42051:1,2009-07-02T14:00:00Z,29.6350,-93.6417,2.0,115.1277654,4.992474336,-99999.0,'11133222,11111222,99999999' 
TABS,ioos:station:wmo:42051:1,2009-07-02T14:30:00Z,29.6350,-93.6417,2.0,122.1102934,4.627958513,-99999.0,'11133222,11111222,99999999' 
TABS,ioos:station:wmo:42051:1,2009-07-02T15:00:00Z,29.6350,-93.6417,2.0,100.420688,1.769180601,-99999.0,'11133222,11111222,99999999' 
TABS,ioos:station:wmo:42051:1,2009-07-02T15:30:00Z,29.6350,-93.6417,2.0,153.7496086,2.441823089,-99999.0,'11133222,11111222,99999999' 
TABS,ioos:station:wmo:42051:1,2009-07-02T16:00:00Z,29.6350,-93.6417,2.0,207.4845838,3.900205123,-99999.0,'11133222,11111222,99999999' 
TABS,ioos:station:wmo:42051:1,2009-07-02T16:30:00Z,29.6350,-93.6417,2.0,225.861208,5.643350069,-99999.0,'11133222,11111222,99999999' 
TABS,ioos:station:wmo:42051:1,2009-07-02T17:00:00Z,29.6350,-93.6417,2.0,241.2506449,5.280956353,-99999.0,'11133222,11111222,99999999' 
TABS,ioos:station:wmo:42051:1,2009-07-02T17:30:00Z,29.6350,-93.6417,2.0,250.9825896,6.536765255,-99999.0,'11133222,11111222,99999999' 
TABS,ioos:station:wmo:42051:1,2009-07-02T18:00:00Z,29.6350,-93.6417,2.0,241.574995,6.890718395,-99999.0,'11133222,11111222,99999999' 
TABS,ioos:station:wmo:42051:1,2009-07-02T18:30:00Z,29.6350,-93.6417,2.0,243.5795197,5.303970211,-99999.0,'11133222,11111222,99999999' 
TABS,ioos:station:wmo:42051:1,2009-07-02T19:00:00Z,29.6350,-93.6417,2.0,249.3845548,6.81648003,-99999.0,'11133222,11111222,99999999' 
TABS,ioos:station:wmo:42051:1,2009-07-02T19:30:00Z,29.6350,-93.6417,2.0,252.0393874,4.961783953,-99999.0,'11133222,11111222,99999999' 
TABS,ioos:station:wmo:42051:1,2009-07-02T20:00:00Z,29.6350,-93.6417,2.0,286.5791729,1.366821129,-99999.0,'11133222,11111222,99999999' 
TABS,ioos:station:wmo:42051:1,2009-07-02T20:30:00Z,29.6350,-93.6417,2.0,10.4612439,7.545415827,-99999.0,'11133222,11111222,99999999' 
TABS,ioos:station:wmo:42051:1,2009-07-02T21:00:00Z,29.6350,-93.6417,2.0,21.97987434,5.370335185,-99999.0,'11133222,11111222,99999999' 
TABS,ioos:station:wmo:42051:1,2009-07-02T21:30:00Z,29.6350,-93.6417,2.0,16.38280355,4.680010684,-99999.0,'11133222,11111222,99999999' 
TABS,ioos:station:wmo:42051:1,2009-07-02T22:00:00Z,29.6350,-93.6417,2.0,48.98671075,8.746862295,-99999.0,'11133222,11111222,99999999' 
TABS,ioos:station:wmo:42051:1,2009-07-02T22:30:00Z,29.6350,-93.6417,2.0,41.79549176,10.8781708,-99999.0,'11111222,11111222,99999999' 
TABS,ioos:station:wmo:42051:1,2009-07-02T23:00:00Z,29.6350,-93.6417,2.0,44.14839921,7.135495778,-99999.0,'11133222,11111222,99999999' 
TABS,ioos:station:wmo:42051:1,2009-07-02T23:30:00Z,29.6350,-93.6417,2.0,34.99691354,9.851263878,-99999.0,'11133222,11111222,99999999' 
TABS,ioos:station:wmo:42051:1,2009-07-03T00:00:00Z,29.6350,-93.6417,2.0,59.43532943,10.83554336,-99999.0,'11111222,11111222,99999999' 
TABS,ioos:station:wmo:42051:1,2009-07-03T00:30:00Z,29.6350,-93.6417,2.0,61.17514632,10.66091928,-99999.0,'11111222,11111222,99999999' 
TABS,ioos:station:wmo:42051:1,2009-07-03T01:00:00Z,29.6350,-93.6417,2.0,46.79690276,12.85445059,-99999.0,'11111222,11111222,99999999' 
TABS,ioos:station:wmo:42051:1,2009-07-03T01:30:00Z,29.6350,-93.6417,2.0,54.60630829,12.03399352,-99999.0,'11111222,11111222,99999999' 
TABS,ioos:station:wmo:42051:1,2009-07-03T02:00:00Z,29.6350,-93.6417,2.0,48.7613229,13.25852556,-99999.0,'11111222,11111222,99999999' 
TABS,ioos:station:wmo:42051:1,2009-07-03T02:30:00Z,29.6350,-93.6417,2.0,63.73656419,12.745764,-99999.0,'11111222,11111222,99999999' 
TABS,ioos:station:wmo:42051:1,2009-07-03T03:00:00Z,29.6350,-93.6417,2.0,46.01348384,11.99440703,-99999.0,'11111222,11111222,99999999' 
TABS,ioos:station:wmo:42051:1,2009-07-03T03:30:00Z,29.6350,-93.6417,2.0,64.73089901,6.723339944,-99999.0,'11133222,11111222,99999999' 
TABS,ioos:station:wmo:42051:1,2009-07-03T04:00:00Z,29.6350,-93.6417,2.0,56.20286665,5.932528972,-99999.0,'11133222,11111222,99999999' 
TABS,ioos:station:wmo:42051:1,2009-07-03T04:30:00Z,29.6350,-93.6417,2.0,24.3735904,8.069163525,-99999.0,'11133222,11111222,99999999' 
TABS,ioos:station:wmo:42051:1,2009-07-03T05:00:00Z,29.6350,-93.6417,2.0,20.53007703,7.698967463,-99999.0,'11133222,11111222,99999999' 
TABS,ioos:station:wmo:42051:1,2009-07-03T05:30:00Z,29.6350,-93.6417,2.0,44.95263577,8.534781778,-99999.0,'11133222,11111222,99999999' 
TABS,ioos:station:wmo:42051:1,2009-07-03T06:00:00Z,29.6350,-93.6417,2.0,82.86396494,6.439883539,-99999.0,'11133222,11111222,99999999' 
TABS,ioos:station:wmo:42051:1,2009-07-03T06:30:00Z,29.6350,-93.6417,2.0,47.76853125,7.320027322,-99999.0,'11133222,11111222,99999999' 
TABS,ioos:station:wmo:42051:1,2009-07-03T07:00:00Z,29.6350,-93.6417,2.0,45.98849435,11.06786791,-99999.0,'11111222,11111222,99999999' 
TABS,ioos:station:wmo:42051:1,2009-07-03T07:30:00Z,29.6350,-93.6417,2.0,57.7891476,7.091431449,-99999.0,'11133222,11111222,99999999' 
TABS,ioos:station:wmo:42051:1,2009-07-03T08:00:00Z,29.6350,-93.6417,2.0,78.80263438,17.97211729,-99999.0,'11111222,11111222,99999999' 
TABS,ioos:station:wmo:42051:1,2009-07-03T08:30:00Z,29.6350,-93.6417,2.0,105.5499932,21.29963615,-99999.0,'11111222,11111222,99999999' 
TABS,ioos:station:wmo:42051:1,2009-07-03T09:00:00Z,29.6350,-93.6417,2.0,109.0112719,24.83462301,-99999.0,'11111222,11111222,99999999' 
TABS,ioos:station:wmo:42051:1,2009-07-03T09:30:00Z,29.6350,-93.6417,2.0,112.9696336,22.678115,-99999.0,'11111222,11111222,99999999' 
TABS,ioos:station:wmo:42051:1,2009-07-03T10:00:00Z,29.6350,-93.6417,2.0,124.8036882,23.6873996,-99999.0,'11111222,11111222,99999999' 
TABS,ioos:station:wmo:42051:1,2009-07-03T10:30:00Z,29.6350,-93.6417,2.0,129.6153299,19.29014256,-99999.0,'11111222,11111222,99999999' 
TABS,ioos:station:wmo:42051:1,2009-07-03T11:00:00Z,29.6350,-93.6417,2.0,126.3531888,17.96673036,-99999.0,'11111222,11111222,99999999' 
TABS,ioos:station:wmo:42051:1,2009-07-03T11:30:00Z,29.6350,-93.6417,2.0,115.2450464,14.56066619,-99999.0,'11111222,11111222,99999999' 
TABS,ioos:station:wmo:42051:1,2009-07-03T12:00:00Z,29.6350,-93.6417,2.0,107.1945538,16.50779513,-99999.0,'11111222,11111222,99999999' 
TABS,ioos:station:wmo:42051:1,2009-07-03T12:30:00Z,29.6350,-93.6417,2.0,132.762183,12.85793529,-99999.0,'11111222,11111222,99999999' 
TABS,ioos:station:wmo:42051:1,2009-07-03T13:00:00Z,29.6350,-93.6417,2.0,117.3471336,6.552289676,-99999.0,'11133222,11111222,99999999' 
TABS,ioos:station:wmo:42051:1,2009-07-03T13:30:00Z,29.6350,-93.6417,2.0,110.0092311,7.481610789,-99999.0,'11133222,11111222,99999999' 
TABS,ioos:station:wmo:42051:1,2009-07-03T14:00:00Z,29.6350,-93.6417,2.0,71.56509429,5.755345342,-99999.0,'11133222,11111222,99999999' 
TABS,ioos:station:wmo:42051:1,2009-07-03T14:30:00Z,29.6350,-93.6417,2.0,94.18215927,5.073509633,-99999.0,'11133222,11111222,99999999' 
TABS,ioos:station:wmo:42051:1,2009-07-03T15:00:00Z,29.6350,-93.6417,2.0,82.26264532,3.713812058,-99999.0,'11133222,11111222,99999999' 
TABS,ioos:station:wmo:42051:1,2009-07-03T15:30:00Z,29.6350,-93.6417,2.0,343.9315472,1.914810696,-99999.0,'11133222,11111222,99999999' 
TABS,ioos:station:wmo:42051:1,2009-07-03T16:00:00Z,29.6350,-93.6417,2.0,224.8834661,3.486043603,-99999.0,'11133222,11111222,99999999' 
TABS,ioos:station:wmo:42051:1,2009-07-03T16:30:00Z,29.6350,-93.6417,2.0,254.6957338,5.15271773,-99999.0,'11133222,11111222,99999999' 
TABS,ioos:station:wmo:42051:1,2009-07-03T17:00:00Z,29.6350,-93.6417,2.0,259.0423778,5.734544446,-99999.0,'11133222,11111222,99999999' 
TABS,ioos:station:wmo:42051:1,2009-07-03T17:30:00Z,29.6350,-93.6417,2.0,237.6780594,4.993726064,-99999.0,'11133222,11111222,99999999' 
TABS,ioos:station:wmo:42051:1,2009-07-03T18:00:00Z,29.6350,-93.6417,2.0,290.5148241,6.44896891,-99999.0,'11133222,11111222,99999999' 
TABS,ioos:station:wmo:42051:1,2009-07-03T18:30:00Z,29.6350,-93.6417,2.0,283.5362456,3.332566578,-99999.0,'11133222,11111222,99999999' 
TABS,ioos:station:wmo:42051:1,2009-07-03T19:00:00Z,29.6350,-93.6417,2.0,235.3793703,2.904238282,-99999.0,'11133222,11111222,99999999' 
TABS,ioos:station:wmo:42051:1,2009-07-03T19:30:00Z,29.6350,-93.6417,2.0,182.3370899,2.94244796,-99999.0,'11133222,11111222,99999999' 
TABS,ioos:station:wmo:42051:1,2009-07-03T20:00:00Z,29.6350,-93.6417,2.0,232.4310749,0.492036584,-99999.0,'11133222,11111222,99999999' 
TABS,ioos:station:wmo:42051:1,2009-07-03T20:30:00Z,29.6350,-93.6417,2.0,278.0432963,0.929139387,-99999.0,'11133222,11111222,99999999' 
TABS,ioos:station:wmo:42051:1,2009-07-03T21:00:00Z,29.6350,-93.6417,2.0,66.20928177,2.032732152,-99999.0,'11133222,11111222,99999999' 
TABS,ioos:station:wmo:42051:1,2009-07-03T21:30:00Z,29.6350,-93.6417,2.0,103.1980896,2.321314283,-99999.0,'11133222,11111222,99999999' 
TABS,ioos:station:wmo:42051:1,2009-07-03T22:00:00Z,29.6350,-93.6417,2.0,69.66743877,2.100904567,-99999.0,'11133222,11111222,99999999' 
TABS,ioos:station:wmo:42051:1,2009-07-03T22:30:00Z,29.6350,-93.6417,2.0,346.9477204,2.96664794,-99999.0,'11133222,11111222,99999999' 
TABS,ioos:station:wmo:42051:1,2009-07-03T23:00:00Z,29.6350,-93.6417,2.0,92.23531234,5.384096953,-99999.0,'11133222,11111222,99999999' 
TABS,ioos:station:wmo:42051:1,2009-07-03T23:30:00Z,29.6350,-93.6417,2.0,69.72140697,8.944389303,-99999.0,'11133222,11111222,99999999' 
TABS,ioos:station:wmo:42051:1,2009-07-04T00:00:00Z,29.6350,-93.6417,2.0,51.45040819,8.937840903,-99999.0,'11133222,11111222,99999999' 
TABS,ioos:station:wmo:42051:1,2009-07-04T00:30:00Z,29.6350,-93.6417,2.0,54.73386085,7.360883099,-99999.0,'11133222,11111222,99999999' 
TABS,ioos:station:wmo:42051:1,2009-07-04T01:00:00Z,29.6350,-93.6417,2.0,61.4058184,8.462115575,-99999.0,'11133222,11111222,99999999' 
TABS,ioos:station:wmo:42051:1,2009-07-04T01:30:00Z,29.6350,-93.6417,2.0,60.24722721,17.85355987,-99999.0,'11111222,11111222,99999999' 
TABS,ioos:station:wmo:42051:1,2009-07-04T02:00:00Z,29.6350,-93.6417,2.0,58.86696963,20.88861891,-99999.0,'11111222,11111222,99999999' 
TABS,ioos:station:wmo:42051:1,2009-07-04T02:30:00Z,29.6350,-93.6417,2.0,62.5863517,18.41827625,-99999.0,'11111222,11111222,99999999' 
TABS,ioos:station:wmo:42051:1,2009-07-04T03:00:00Z,29.6350,-93.6417,2.0,51.02209819,24.46655881,-99999.0,'11111222,11111222,99999999' 
TABS,ioos:station:wmo:42051:1,2009-07-04T03:30:00Z,29.6350,-93.6417,2.0,49.75836574,25.06138464,-99999.0,'11111222,11111222,99999999' 
TABS,ioos:station:wmo:42051:1,2009-07-04T04:00:00Z,29.6350,-93.6417,2.0,44.3672356,21.76607452,-99999.0,'11111222,11111222,99999999' 
TABS,ioos:station:wmo:42051:1,2009-07-04T04:30:00Z,29.6350,-93.6417,2.0,43.76420129,23.2762991,-99999.0,'11111222,11111222,99999999' 
TABS,ioos:station:wmo:42051:1,2009-07-04T05:00:00Z,29.6350,-93.6417,2.0,46.69562023,21.98650495,-99999.0,'11111222,11111222,99999999' 
TABS,ioos:station:wmo:42051:1,2009-07-04T05:30:00Z,29.6350,-93.6417,2.0,44.90547997,17.1261496,-99999.0,'11111222,11111222,99999999' 
TABS,ioos:station:wmo:42051:1,2009-07-04T06:00:00Z,29.6350,-93.6417,2.0,48.62485009,18.7900612,-99999.0,'11111222,11111222,99999999' 
TABS,ioos:station:wmo:42051:1,2009-07-04T06:30:00Z,29.6350,-93.6417,2.0,52.71913931,12.26631567,-99999.0,'11111222,11111222,99999999' 
TABS,ioos:station:wmo:42051:1,2009-07-04T07:00:00Z,29.6350,-93.6417,2.0,34.52165417,18.15724924,-99999.0,'11111222,11111222,99999999' 
TABS,ioos:station:wmo:42051:1,2009-07-04T07:30:00Z,29.6350,-93.6417,2.0,39.1527284,17.97626491,-99999.0,'11111222,11111222,99999999' 
TABS,ioos:station:wmo:42051:1,2009-07-04T08:00:00Z,29.6350,-93.6417,2.0,50.3505555,14.104595,-99999.0,'11111222,11111222,99999999' 
TABS,ioos:station:wmo:42051:1,2009-07-04T08:30:00Z,29.6350,-93.6417,2.0,44.02118621,17.3832218,-99999.0,'11111222,11111222,99999999' 
TABS,ioos:station:wmo:42051:1,2009-07-04T09:00:00Z,29.6350,-93.6417,2.0,44.89520669,19.31111856,-99999.0,'11111222,11111222,99999999' 
TABS,ioos:station:wmo:42051:1,2009-07-04T09:30:00Z,29.6350,-93.6417,2.0,47.43296481,13.6594729,-99999.0,'11111222,11111222,99999999' 
TABS,ioos:station:wmo:42051:1,2009-07-04T10:00:00Z,29.6350,-93.6417,2.0,64.52339832,12.94916986,-99999.0,'11111222,11111222,99999999' 
TABS,ioos:station:wmo:42051:1,2009-07-04T10:30:00Z,29.6350,-93.6417,2.0,47.38405935,16.99941764,-99999.0,'11111222,11111222,99999999' 
TABS,ioos:station:wmo:42051:1,2009-07-04T11:00:00Z,29.6350,-93.6417,2.0,59.49864714,17.00292328,-99999.0,'11111222,11111222,99999999' 
TABS,ioos:station:wmo:42051:1,2009-07-04T11:30:00Z,29.6350,-93.6417,2.0,64.70734009,16.31390205,-99999.0,'11111222,11111222,99999999' 
TABS,ioos:station:wmo:42051:1,2009-07-04T12:00:00Z,29.6350,-93.6417,2.0,71.68860029,16.13714039,-99999.0,'11111222,11111222,99999999' 
TABS,ioos:station:wmo:42051:1,2009-07-04T12:30:00Z,29.6350,-93.6417,2.0,75.07674132,18.17294693,-99999.0,'11111222,11111222,99999999' 
TABS,ioos:station:wmo:42051:1,2009-07-04T13:00:00Z,29.6350,-93.6417,2.0,90.5462806,26.22119181,-99999.0,'11111222,11111222,99999999' 
TABS,ioos:station:wmo:42051:1,2009-07-04T13:30:00Z,29.6350,-93.6417,2.0,93.71303077,26.40542747,-99999.0,'11111222,11111222,99999999' 
TABS,ioos:station:wmo:42051:1,2009-07-04T14:00:00Z,29.6350,-93.6417,2.0,95.13308117,25.37175201,-99999.0,'11111222,11111222,99999999' 
TABS,ioos:station:wmo:42051:1,2009-07-04T14:30:00Z,29.6350,-93.6417,2.0,94.36524753,26.276225,-99999.0,'11111222,11111222,99999999' 
TABS,ioos:station:wmo:42051:1,2009-07-04T15:00:00Z,29.6350,-93.6417,2.0,95.31092139,29.3861532,-99999.0,'11111222,11111222,99999999' 
TABS,ioos:station:wmo:42051:1,2009-07-04T15:30:00Z,29.6350,-93.6417,2.0,96.14585664,34.84024254,-99999.0,'11111222,11111222,99999999' 
TABS,ioos:station:wmo:42051:1,2009-07-04T16:00:00Z,29.6350,-93.6417,2.0,101.0582223,31.69855675,-99999.0,'11111222,11111222,99999999' 